TimeEDT,TemperatureF,Dew PointF,Humidity,Sea Level PressureIn,VisibilityMPH,Wind Direction,Wind SpeedMPH,Gust SpeedMPH,PrecipitationIn,Events,Conditions,WindDirDegrees,DateUTC
12:54 AM,45.0,35.1,68,30.10,10.0,SSW,6.9,-,N/A,,Clear,210,2012-10-12 04:54:00
1:54 AM,43.0,35.1,74,30.08,10.0,SW,4.6,-,N/A,,Clear,230,2012-10-12 05:54:00
2:54 AM,44.1,35.1,71,30.06,10.0,SW,4.6,-,N/A,,Clear,220,2012-10-12 06:54:00
3:54 AM,44.1,35.1,71,30.03,10.0,SSW,5.8,-,N/A,,Clear,200,2012-10-12 07:54:00
4:54 AM,44.1,35.1,71,30.02,10.0,SSW,4.6,-,N/A,,Clear,200,2012-10-12 08:54:00
5:54 AM,43.0,35.1,74,30.01,10.0,SSW,5.8,-,N/A,,Clear,210,2012-10-12 09:54:00
6:54 AM,43.0,35.1,74,30.01,10.0,SSW,4.6,-,N/A,,Clear,200,2012-10-12 10:54:00
7:54 AM,46.0,36.0,68,30.02,10.0,SW,6.9,-,N/A,,Clear,220,2012-10-12 11:54:00
8:54 AM,50.0,37.0,61,30.05,10.0,WSW,10.4,-,N/A,,Scattered Clouds,250,2012-10-12 12:54:00
9:54 AM,48.2,39.2,71,30.07,10.0,West,8.1,-,N/A,,Overcast,270,2012-10-12 13:54:00
10:29 AM,46.4,39.2,76,30.09,6.0,NW,10.4,-,N/A,Rain,Rain,320,2012-10-12 14:29:00
10:54 AM,46.0,39.9,79,30.11,10.0,NNW,8.1,-,0.04,Rain,Light Rain,340,2012-10-12 14:54:00
11:03 AM,46.4,39.2,76,30.10,10.0,Variable,4.6,-,0.00,Rain,Light Rain,0,2012-10-12 15:03:00
11:54 AM,46.4,39.2,76,30.09,10.0,West,4.6,-,N/A,,Overcast,270,2012-10-12 15:54:00
12:54 PM,48.9,39.9,71,30.09,10.0,West,5.8,-,N/A,,Overcast,280,2012-10-12 16:54:00
1:54 PM,53.1,37.0,55,30.09,10.0,NW,9.2,-,N/A,,Scattered Clouds,320,2012-10-12 17:54:00
2:54 PM,52.0,30.0,43,30.11,10.0,NW,17.3,23.0,N/A,,Clear,320,2012-10-12 18:54:00
3:54 PM,52.0,25.0,35,30.13,10.0,NNW,16.1,24.2,N/A,,Scattered Clouds,330,2012-10-12 19:54:00
4:54 PM,51.1,25.0,36,30.15,10.0,NW,12.7,19.6,N/A,,Clear,310,2012-10-12 20:54:00
6:54 PM,46.9,23.0,39,30.23,10.0,NNW,11.5,19.6,N/A,,Partly Cloudy,330,2012-10-12 22:54:00
7:54 PM,44.1,25.0,47,30.29,10.0,NNW,13.8,18.4,N/A,,Partly Cloudy,330,2012-10-12 23:54:00
8:54 PM,42.1,21.9,45,30.32,10.0,NW,10.4,19.6,N/A,,Clear,320,2012-10-13 00:54:00
9:54 PM,41.0,21.2,45,30.35,10.0,NNW,8.1,-,N/A,,Clear,330,2012-10-13 01:54:00
10:54 PM,39.0,21.9,50,30.37,10.0,WNW,5.8,-,N/A,,Clear,300,2012-10-13 02:54:00
11:54 PM,36.0,24.1,62,30.38,10.0,WNW,5.8,-,N/A,,Clear,290,2012-10-13 03:54:00